BCS1 EDDH-EDDP

Flight info

Callsign BCS1
Flight time 0h 40m
Altitude 25000
Route AMLUH2G AMLUH M852 DENIX/N0449F230 Z113 SAS Z88 UPDAT T236 ADMOS T959 KOJEC KOJEC1R
Aircraft A306/H-SDE3FGHIRWY/LB1

Departure

Time 2026-05-07 22:49
Airport Hamburg Helmut Schmidt Airport (EDDH)

Arrival

Time 2026-05-07 23:30
Airport Leipzig/Halle Airport (EDDP)
Time Latitude Longitude Altitude Speed Heading
2026-05-07 22:09 53.63213 10.00039 55 ft 0 kts 157°
2026-05-07 22:36 53.63212 10.00040 51 ft 0 kts 157°
2026-05-07 22:37 53.63209 10.00042 51 ft 1 kts 157°
2026-05-07 22:37 53.63206 10.00044 51 ft 0 kts 157°
2026-05-07 22:40 53.63199 10.00048 51 ft 4 kts 161°
2026-05-07 22:41 53.63154 10.00028 50 ft 7 kts 217°
2026-05-07 22:41 53.63139 9.99970 51 ft 4 kts 253°
2026-05-07 22:41 53.63130 9.99919 54 ft 5 kts 253°
2026-05-07 22:41 53.63134 9.99848 52 ft 8 kts 304°
2026-05-07 22:42 53.63161 9.99819 51 ft 0 kts 328°
2026-05-07 22:43 53.63172 9.99807 50 ft 7 kts 328°
2026-05-07 22:43 53.63263 9.99768 52 ft 18 kts 15°
2026-05-07 22:44 53.63353 9.99912 49 ft 19 kts 49°
2026-05-07 22:44 53.63421 10.00049 50 ft 8 kts 50°
2026-05-07 22:44 53.63436 10.00093 55 ft 1 kts 58°
2026-05-07 22:44 53.63440 10.00101 56 ft 0 kts 51°
2026-05-07 22:45 53.63434 10.00122 53 ft 5 kts 130°
2026-05-07 22:45 53.63353 10.00169 54 ft 20 kts 174°
2026-05-07 22:45 53.63160 10.00190 50 ft 31 kts 177°
2026-05-07 22:45 53.62988 10.00101 49 ft 20 kts 211°
2026-05-07 22:46 53.62953 10.00062 49 ft 5 kts 213°
2026-05-07 22:46 53.62947 10.00056 49 ft 0 kts 212°
2026-05-07 22:47 53.62936 10.00040 47 ft 8 kts 220°
2026-05-07 22:47 53.62857 9.99973 50 ft 14 kts 213°
2026-05-07 22:47 53.62812 9.99810 49 ft 3 kts 288°
2026-05-07 22:47 53.62821 9.99786 52 ft 2 kts 307°
2026-05-07 22:48 53.62830 9.99775 50 ft 0 kts 329°
2026-05-07 22:49 53.62884 9.99729 50 ft 36 kts 335°
2026-05-07 22:49 53.63330 9.99342 50 ft 106 kts 334°
2026-05-07 22:49 53.64172 9.98623 55 ft 163 kts 334°
2026-05-07 22:49 53.65224 9.97670 709 ft 172 kts 333°
2026-05-07 22:50 53.66241 9.96653 1730 ft 168 kts 333°
2026-05-07 22:50 53.67151 9.95687 2666 ft 155 kts 333°
2026-05-07 22:50 53.68164 9.94617 2834 ft 197 kts 332°
2026-05-07 22:50 53.69452 9.93301 3232 ft 225 kts 332°
2026-05-07 22:51 53.70770 9.91962 4357 ft 213 kts 332°
2026-05-07 22:51 53.72060 9.91070 5553 ft 194 kts
2026-05-07 22:51 53.73242 9.91776 6645 ft 178 kts 46°
2026-05-07 22:51 53.73668 9.93640 7504 ft 175 kts 92°
2026-05-07 22:52 53.73502 9.95683 8260 ft 177 kts 95°
2026-05-07 22:52 53.73450 9.97871 8678 ft 199 kts 81°
2026-05-07 22:52 53.73777 10.00286 9055 ft 221 kts 75°
2026-05-07 22:52 53.74006 10.02980 9393 ft 242 kts 91°
2026-05-07 22:53 53.73552 10.05808 9686 ft 261 kts 115°
2026-05-07 22:53 53.72653 10.08597 9946 ft 281 kts 120°
2026-05-07 22:53 53.71640 10.11508 10264 ft 298 kts 120°
2026-05-07 22:53 53.70561 10.14630 10579 ft 313 kts 120°
2026-05-07 22:54 53.69323 10.17743 10857 ft 326 kts 130°
2026-05-07 22:54 53.67635 10.20315 11115 ft 338 kts 147°
2026-05-07 22:54 53.65468 10.22003 11401 ft 348 kts 162°
2026-05-07 22:54 53.63094 10.23140 11682 ft 358 kts 166°
2026-05-07 22:55 53.60654 10.24215 11950 ft 367 kts 166°
2026-05-07 22:55 53.58158 10.25322 12198 ft 375 kts 166°
2026-05-07 22:55 53.55644 10.26453 12455 ft 382 kts 166°
2026-05-07 22:55 53.53049 10.27628 12706 ft 389 kts 166°
2026-05-07 22:56 53.50424 10.28820 13055 ft 392 kts 166°
2026-05-07 22:56 53.47775 10.30023 13454 ft 394 kts 166°
2026-05-07 22:56 53.45118 10.31233 13853 ft 396 kts 166°
2026-05-07 22:56 53.42448 10.32446 14203 ft 398 kts 166°
2026-05-07 22:57 53.39766 10.33657 14539 ft 400 kts 166°
2026-05-07 22:57 53.37097 10.34858 14862 ft 402 kts 166°
2026-05-07 22:57 53.34391 10.36074 15186 ft 404 kts 166°
2026-05-07 22:57 53.31665 10.37296 15510 ft 405 kts 166°
2026-05-07 22:58 53.28931 10.38522 15817 ft 407 kts 166°
2026-05-07 22:58 53.26191 10.39747 16109 ft 409 kts 166°
2026-05-07 22:58 53.23460 10.40968 16414 ft 411 kts 166°
2026-05-07 22:58 53.20689 10.42206 16702 ft 412 kts 166°
2026-05-07 22:59 53.17914 10.43444 16982 ft 413 kts 166°
2026-05-07 22:59 53.15121 10.44622 17229 ft 415 kts 169°
2026-05-07 22:59 53.12258 10.45265 17476 ft 415 kts 178°
2026-05-07 22:59 53.09367 10.45344 17739 ft 415 kts 182°
2026-05-07 23:00 53.06513 10.45203 17964 ft 416 kts 184°
2026-05-07 23:00 53.03611 10.44933 18180 ft 418 kts 185°
2026-05-07 23:00 53.00694 10.44602 18394 ft 419 kts 185°
2026-05-07 23:00 52.97787 10.44262 18580 ft 420 kts 185°
2026-05-07 23:01 52.94857 10.43932 18747 ft 422 kts 185°
2026-05-07 23:01 52.92165 10.43644 18898 ft 423 kts 185°
2026-05-07 23:01 52.91615 10.43587 18929 ft 423 kts 185°
2026-05-07 23:02 52.88603 10.43279 19107 ft 424 kts 185°
2026-05-07 23:02 52.85649 10.42986 19268 ft 425 kts 185°
2026-05-07 23:02 52.82688 10.42696 19429 ft 426 kts 185°
2026-05-07 23:02 52.79759 10.42411 19587 ft 427 kts 185°
2026-05-07 23:03 52.76788 10.42122 19736 ft 428 kts 185°
2026-05-07 23:03 52.73818 10.41632 19882 ft 428 kts 190°
2026-05-07 23:03 52.70931 10.40470 20024 ft 427 kts 199°
2026-05-07 23:03 52.68204 10.38485 20161 ft 427 kts 210°
2026-05-07 23:04 52.67369 10.37694 20208 ft 427 kts 211°
2026-05-07 23:04 52.65773 10.36057 20309 ft 427 kts 213°
2026-05-07 23:04 52.63341 10.33328 20468 ft 427 kts 216°
2026-05-07 23:04 52.60928 10.30459 20557 ft 429 kts 217°
2026-05-07 23:05 52.58519 10.27539 20665 ft 430 kts 217°
2026-05-07 23:05 52.56109 10.24621 20786 ft 431 kts 217°
2026-05-07 23:05 52.53677 10.21706 20916 ft 432 kts 217°
2026-05-07 23:05 52.51232 10.18805 21016 ft 433 kts 216°
2026-05-07 23:06 52.48809 10.15954 21127 ft 434 kts 216°
2026-05-07 23:06 52.46345 10.13074 21243 ft 435 kts 216°
2026-05-07 23:06 52.43877 10.10198 21353 ft 435 kts 216°
2026-05-07 23:06 52.42239 10.08292 21416 ft 436 kts 216°
2026-05-07 23:07 52.38915 10.04431 21581 ft 437 kts 216°
2026-05-07 23:07 52.37267 10.02519 21652 ft 437 kts 216°
2026-05-07 23:07 52.34784 9.99640 21771 ft 438 kts 216°
2026-05-07 23:07 52.31349 9.96203 21888 ft 440 kts 207°
2026-05-07 23:08 52.29430 9.94893 21956 ft 441 kts 200°
2026-05-07 23:08 52.26447 9.93709 22069 ft 443 kts 189°
2026-05-07 23:08 52.23389 9.93534 22186 ft 445 kts 178°
2026-05-07 23:08 52.20318 9.94430 22286 ft 449 kts 165°
2026-05-07 23:09 52.17424 9.96375 22353 ft 452 kts 154°
2026-05-07 23:09 52.14697 9.98914 22455 ft 453 kts 150°
2026-05-07 23:09 52.12032 10.01676 22517 ft 453 kts 148°
2026-05-07 23:09 52.09449 10.04467 22598 ft 452 kts 148°
2026-05-07 23:10 52.06831 10.07316 22648 ft 452 kts 148°
2026-05-07 23:10 52.04199 10.10153 22664 ft 454 kts 148°
2026-05-07 23:10 52.01547 10.12970 22715 ft 455 kts 148°
2026-05-07 23:10 51.98884 10.15765 22831 ft 454 kts 149°
2026-05-07 23:11 51.96274 10.18534 23153 ft 450 kts 146°
2026-05-07 23:11 51.93867 10.21768 23416 ft 450 kts 137°
2026-05-07 23:11 51.91850 10.25634 23608 ft 451 kts 127°
2026-05-07 23:11 51.90173 10.29923 23798 ft 451 kts 122°
2026-05-07 23:12 51.88630 10.34353 23910 ft 452 kts 120°
2026-05-07 23:12 51.87155 10.38857 24063 ft 452 kts 119°
2026-05-07 23:12 51.85711 10.43367 24240 ft 451 kts 119°
2026-05-07 23:12 51.84277 10.47838 24402 ft 451 kts 120°
2026-05-07 23:13 51.82822 10.52332 24584 ft 450 kts 120°
2026-05-07 23:13 51.81357 10.56807 24771 ft 449 kts 120°
2026-05-07 23:13 51.79884 10.61259 24939 ft 448 kts 120°
2026-05-07 23:13 51.78420 10.65657 25116 ft 448 kts 120°
2026-05-07 23:14 51.76952 10.70052 24963 ft 441 kts 121°
2026-05-07 23:14 51.75497 10.74402 24125 ft 440 kts 121°
2026-05-07 23:14 51.74023 10.78801 22754 ft 449 kts 120°
2026-05-07 23:14 51.72592 10.83322 21531 ft 455 kts 115°
2026-05-07 23:15 51.71386 10.87922 20235 ft 438 kts 115°
2026-05-07 23:15 51.70238 10.92453 18479 ft 435 kts 114°
2026-05-07 23:15 51.69133 10.96956 16773 ft 429 kts 113°
2026-05-07 23:15 51.68075 11.01333 15299 ft 418 kts 113°
2026-05-07 23:16 51.67037 11.05644 14086 ft 405 kts 113°
2026-05-07 23:16 51.66044 11.09754 13413 ft 379 kts 113°
2026-05-07 23:16 51.65116 11.13582 12914 ft 354 kts 113°
2026-05-07 23:16 51.64248 11.17147 12492 ft 330 kts 113°
2026-05-07 23:17 51.63423 11.20515 11853 ft 318 kts 113°
2026-05-07 23:17 51.62537 11.23740 11077 ft 311 kts 118°
2026-05-07 23:17 51.61549 11.26760 10422 ft 304 kts 120°
2026-05-07 23:17 51.60554 11.29715 9787 ft 296 kts 120°
2026-05-07 23:18 51.59573 11.32584 9121 ft 290 kts 120°
2026-05-07 23:18 51.58597 11.35410 8535 ft 286 kts 120°
2026-05-07 23:18 51.57629 11.38199 8141 ft 285 kts 120°
2026-05-07 23:18 51.56662 11.40979 7765 ft 283 kts 120°
2026-05-07 23:19 51.55732 11.43640 7385 ft 269 kts 120°
2026-05-07 23:19 51.54835 11.46207 6995 ft 258 kts 120°
2026-05-07 23:19 51.53963 11.48699 6633 ft 255 kts 120°
2026-05-07 23:19 51.53095 11.51174 6257 ft 253 kts 120°
2026-05-07 23:20 51.52234 11.53629 5861 ft 251 kts 120°
2026-05-07 23:20 51.51377 11.56067 5483 ft 250 kts 120°
2026-05-07 23:20 51.50527 11.58484 5110 ft 248 kts 120°
2026-05-07 23:20 51.49684 11.60880 4695 ft 246 kts 120°
2026-05-07 23:21 51.48848 11.63252 4313 ft 243 kts 120°
2026-05-07 23:21 51.48020 11.65601 3934 ft 241 kts 120°
2026-05-07 23:21 51.47199 11.67925 3560 ft 236 kts 120°
2026-05-07 23:21 51.46408 11.70164 3236 ft 224 kts 120°
2026-05-07 23:22 51.45671 11.72249 3139 ft 210 kts 119°
2026-05-07 23:22 51.44974 11.74215 3121 ft 194 kts 120°
2026-05-07 23:22 51.44326 11.76041 3123 ft 182 kts 119°
2026-05-07 23:22 51.43703 11.77802 3137 ft 181 kts 119°
2026-05-07 23:23 51.43079 11.79561 3134 ft 182 kts 119°
2026-05-07 23:23 51.42452 11.81327 3133 ft 182 kts 119°
2026-05-07 23:23 51.41826 11.83091 3135 ft 182 kts 119°
2026-05-07 23:23 51.41200 11.84856 3134 ft 182 kts 120°
2026-05-07 23:24 51.40577 11.86608 3124 ft 177 kts 120°
2026-05-07 23:24 51.40019 11.88331 3125 ft 173 kts 110°
2026-05-07 23:24 51.39788 11.90156 3121 ft 162 kts 94°
2026-05-07 23:24 51.39810 11.91854 3116 ft 144 kts 87°
2026-05-07 23:25 51.39886 11.93398 3149 ft 136 kts 87°
2026-05-07 23:25 51.39960 11.94917 3148 ft 138 kts 87°
2026-05-07 23:25 51.40033 11.96457 3135 ft 139 kts 87°
2026-05-07 23:25 51.40105 11.98002 3134 ft 139 kts 87°
2026-05-07 23:26 51.40177 11.99550 3133 ft 139 kts 87°
2026-05-07 23:26 51.40250 12.01096 3087 ft 140 kts 87°
2026-05-07 23:26 51.40323 12.02642 2897 ft 138 kts 86°
2026-05-07 23:26 51.40394 12.04136 2697 ft 131 kts 86°
2026-05-07 23:27 51.40528 12.06985 2350 ft 126 kts 86°
2026-05-07 23:27 51.40593 12.08390 2177 ft 127 kts 85°
2026-05-07 23:27 51.40629 12.09150 2076 ft 126 kts 85°
2026-05-07 23:28 51.40694 12.10540 1908 ft 126 kts 85°
2026-05-07 23:28 51.40760 12.11933 1732 ft 125 kts 85°
2026-05-07 23:28 51.40824 12.13313 1527 ft 126 kts 85°
2026-05-07 23:28 51.40890 12.14711 1278 ft 126 kts 84°
2026-05-07 23:29 51.40957 12.16120 1059 ft 127 kts 84°
2026-05-07 23:29 51.41036 12.17538 814 ft 128 kts 83°
2026-05-07 23:29 51.41100 12.18949 677 ft 128 kts 85°
2026-05-07 23:29 51.41163 12.20369 511 ft 126 kts 84°
2026-05-07 23:30 51.41226 12.21708 460 ft 104 kts 86°
2026-05-07 23:30 51.41260 12.22448 467 ft 65 kts 84°
2026-05-07 23:30 51.41277 12.22905 472 ft 21 kts 89°
2026-05-07 23:30 51.41282 12.23059 471 ft 29 kts 87°
2026-05-07 23:31 51.41266 12.23244 474 ft 16 kts 146°
2026-05-07 23:31 51.41157 12.23254 475 ft 25 kts 177°
2026-05-07 23:31 51.40985 12.23281 468 ft 23 kts 176°
2026-05-07 23:31 51.40841 12.23297 469 ft 19 kts 176°
2026-05-07 23:32 51.40760 12.23309 470 ft 3 kts 165°
2026-05-07 23:32 51.40746 12.23326 469 ft 2 kts 131°
2026-05-07 23:32 51.40740 12.23360 467 ft 3 kts 96°
2026-05-07 23:32 51.40740 12.23368 467 ft 0 kts 92°
2026-05-07 23:33 51.40739 12.23384 469 ft 2 kts 92°
2026-05-07 23:33 51.40739 12.23392 469 ft 1 kts 89°
2026-05-07 23:33 51.40740 12.23411 469 ft 3 kts 88°
2026-05-07 23:33 51.40740 12.23416 469 ft 0 kts 87°